Location: Calvera
(42.3882°N, 0.6137°E)
Time: 13:38:15
(UTC+00:00)

Cosmos 1484 Rocket - Pass Details

Date: 28 October 2020
Orbit: 504 x 560 km, 97.4° (Epoch: 24 November)

Event Time Altitude Azimuth Distance (km) Brightness Sun altitude
Rises 05:27:29 0° 358° (N) 2,695 6.2 -11.4°
Reaches altitude 10° 05:29:56 10° 344° (NNW) 1,788 5.2 -11.0°
Maximum altitude 05:32:58 23° 292° (WNW) 1,163 3.9 -10.4°
Drops below altitude 10° 05:35:57 10° 239° (WSW) 1,751 4.9 -9.9°
Sets 05:38:20 0° 225° (SW) 2,624 5.9 -9.5°
